Time,TemperatureF,DewpointF,PressureIn,WindDirection,WindDirectionDegrees,WindSpeedMPH,WindSpeedGustMPH,Humidity,HourlyPrecipIn,Conditions,Clouds,dailyrainin,SoftwareType,DateUTC
2013-11-03 00:04:00,51.1,44.0,30.10,WNW,289,1.0,-999.0,76,-99.99,,,0.00,weatherlink.com 1.10,2013-11-03 05:04:00,
2013-11-03 00:19:00,50.6,44.0,30.10,WNW,295,0.0,2.0,77,0.00,,,0.00,weatherlink.com 1.10,2013-11-03 05:19:00,
2013-11-03 00:34:00,50.2,44.0,30.10,West,280,0.0,2.0,78,0.00,,,0.00,weatherlink.com 1.10,2013-11-03 05:34:00,
2013-11-03 00:49:00,49.6,44.0,30.10,West,281,0.0,1.0,80,0.00,,,0.00,weatherlink.com 1.10,2013-11-03 05:49:00,
2013-11-03 01:04:00,49.2,44.0,30.10,WNW,294,0.0,1.0,81,0.00,,,0.00,weatherlink.com 1.10,2013-11-03 06:04:00,
2013-11-03 01:19:00,48.6,44.0,30.10,WNW,285,1.0,1.0,83,0.00,,,0.00,weatherlink.com 1.10,2013-11-03 06:19:00,
2013-11-03 01:34:00,48.3,44.0,30.10,West,278,1.0,2.0,84,0.00,,,0.00,weatherlink.com 1.10,2013-11-03 06:34:00,
2013-11-03 01:49:00,48.0,43.0,30.10,WNW,286,0.0,2.0,84,0.00,,,0.00,weatherlink.com 1.10,2013-11-03 06:49:00,
2013-11-03 01:04:00,47.9,43.0,30.10,WNW,288,1.0,2.0,84,0.00,,,0.00,weatherlink.com 1.10,2013-11-03 07:04:00,
2013-11-03 01:19:00,47.6,43.0,30.10,WNW,288,1.0,3.0,85,0.00,,,0.00,weatherlink.com 1.10,2013-11-03 07:19:00,
2013-11-03 01:34:00,47.4,43.0,30.10,WNW,284,1.0,3.0,85,0.00,,,0.00,weatherlink.com 1.10,2013-11-03 07:34:00,
2013-11-03 01:49:00,47.1,43.0,30.10,WNW,292,1.0,3.0,86,0.00,,,0.00,weatherlink.com 1.10,2013-11-03 07:49:00,
2013-11-03 02:04:00,46.8,43.0,30.10,WNW,286,0.0,2.0,86,0.00,,,0.00,weatherlink.com 1.10,2013-11-03 08:04:00,
2013-11-03 02:19:00,46.3,43.0,30.11,West,273,1.0,2.0,87,0.00,,,0.00,weatherlink.com 1.10,2013-11-03 08:19:00,
2013-11-03 02:34:00,45.8,43.0,30.12,West,278,0.0,1.0,88,0.00,,,0.00,weatherlink.com 1.10,2013-11-03 08:34:00,
2013-11-03 02:49:00,45.5,43.0,30.12,West,274,0.0,1.0,89,0.00,,,0.00,weatherlink.com 1.10,2013-11-03 08:49:00,
2013-11-03 03:04:00,45.2,42.0,30.12,West,262,0.0,1.0,89,0.00,,,0.00,weatherlink.com 1.10,2013-11-03 09:04:00,
2013-11-03 03:19:00,45.0,42.0,30.12,WNW,294,0.0,3.0,90,0.00,,,0.00,weatherlink.com 1.10,2013-11-03 09:19:00,
2013-11-03 03:34:00,44.9,42.0,30.13,WNW,288,0.0,2.0,90,0.00,,,0.00,weatherlink.com 1.10,2013-11-03 09:34:00,
2013-11-03 03:49:00,44.1,42.0,30.14,WSW,247,1.0,2.0,91,0.00,,,0.00,weatherlink.com 1.10,2013-11-03 09:49:00,
2013-11-03 04:05:00,43.5,41.0,30.15,West,269,1.0,1.0,92,0.00,,,0.00,weatherlink.com 1.10,2013-11-03 10:05:00,
2013-11-03 04:20:00,43.1,41.0,30.15,WNW,284,0.0,1.0,93,0.00,,,0.00,weatherlink.com 1.10,2013-11-03 10:20:00,
2013-11-03 04:35:00,42.7,41.0,30.15,West,280,0.0,2.0,94,0.00,,,0.00,weatherlink.com 1.10,2013-11-03 10:35:00,
2013-11-03 04:50:00,42.5,41.0,30.15,West,277,0.0,1.0,95,0.00,,,0.00,weatherlink.com 1.10,2013-11-03 10:50:00,
2013-11-03 05:05:00,42.3,41.0,30.15,West,277,0.0,1.0,95,0.00,,,0.00,weatherlink.com 1.10,2013-11-03 11:05:00,
2013-11-03 05:20:00,41.8,41.0,30.15,West,273,0.0,1.0,95,0.00,,,0.00,weatherlink.com 1.10,2013-11-03 11:20:00,
2013-11-03 05:35:00,42.1,41.0,30.15,WNW,288,0.0,1.0,96,0.00,,,0.00,weatherlink.com 1.10,2013-11-03 11:35:00,
2013-11-03 05:50:00,42.2,41.0,30.15,West,281,0.0,2.0,95,0.00,,,0.00,weatherlink.com 1.10,2013-11-03 11:50:00,
2013-11-03 06:05:00,42.0,41.0,30.16,WSW,248,0.0,1.0,95,0.00,,,0.00,weatherlink.com 1.10,2013-11-03 12:05:00,
2013-11-03 06:20:00,41.4,40.0,30.16,NW,312,0.0,3.0,96,0.00,,,0.00,weatherlink.com 1.10,2013-11-03 12:20:00,
2013-11-03 06:35:00,42.9,42.0,30.16,NW,311,0.0,3.0,95,0.00,,,0.00,weatherlink.com 1.10,2013-11-03 12:35:00,
2013-11-03 06:50:00,44.8,43.0,30.17,WSW,252,1.0,3.0,92,0.00,,,0.00,weatherlink.com 1.10,2013-11-03 12:50:00,
2013-11-03 07:05:00,46.3,44.0,30.18,NW,314,0.0,3.0,90,0.00,,,0.00,weatherlink.com 1.10,2013-11-03 13:05:00,
2013-11-03 07:20:00,48.2,44.0,30.18,ESE,122,0.0,5.0,86,0.00,,,0.00,weatherlink.com 1.10,2013-11-03 13:20:00,
2013-11-03 07:35:00,50.1,45.0,30.18,WSW,243,0.0,3.0,83,0.00,,,0.00,weatherlink.com 1.10,2013-11-03 13:35:00,
2013-11-03 07:50:00,52.1,46.0,30.19,SW,224,1.0,4.0,81,0.00,,,0.00,weatherlink.com 1.10,2013-11-03 13:50:00,
2013-11-03 08:05:00,54.1,46.0,30.19,WNW,297,3.0,6.0,74,0.00,,,0.00,weatherlink.com 1.10,2013-11-03 14:05:00,
2013-11-03 08:20:00,55.7,47.0,30.20,ESE,111,2.0,5.0,72,0.00,,,0.00,weatherlink.com 1.10,2013-11-03 14:20:00,
2013-11-03 08:35:00,56.7,47.0,30.20,WNW,295,1.0,7.0,69,0.00,,,0.00,weatherlink.com 1.10,2013-11-03 14:35:00,
2013-11-03 08:50:00,56.6,46.0,30.21,East,79,3.0,6.0,69,0.00,,,0.00,weatherlink.com 1.10,2013-11-03 14:50:00,
2013-11-03 09:05:00,57.1,47.0,30.22,SSW,198,0.0,5.0,70,0.00,,,0.00,weatherlink.com 1.10,2013-11-03 15:05:00,
2013-11-03 09:20:00,57.9,47.0,30.22,ESE,121,2.0,6.0,66,0.00,,,0.00,weatherlink.com 1.10,2013-11-03 15:20:00,
2013-11-03 09:35:00,59.3,47.0,30.22,ESE,117,1.0,6.0,65,0.00,,,0.00,weatherlink.com 1.10,2013-11-03 15:35:00,
2013-11-03 09:50:00,60.5,47.0,30.22,ENE,75,2.0,6.0,62,0.00,,,0.00,weatherlink.com 1.10,2013-11-03 15:50:00,
2013-11-03 10:05:00,61.6,46.0,30.22,ENE,65,4.0,5.0,57,0.00,,,0.00,weatherlink.com 1.10,2013-11-03 16:05:00,
2013-11-03 10:20:00,62.4,46.0,30.21,West,259,0.0,6.0,56,0.00,,,0.00,weatherlink.com 1.10,2013-11-03 16:20:00,
2013-11-03 10:36:00,63.1,44.0,30.21,East,79,2.0,13.0,50,0.00,,,0.00,weatherlink.com 1.10,2013-11-03 16:36:00,
2013-11-03 10:51:00,64.1,42.0,30.20,ESE,105,3.0,6.0,45,0.00,,,0.00,weatherlink.com 1.10,2013-11-03 16:51:00,
2013-11-03 11:06:00,64.0,44.0,30.20,ENE,64,2.0,10.0,48,0.00,,,0.00,weatherlink.com 1.10,2013-11-03 17:06:00,
2013-11-03 11:21:00,65.9,44.0,30.19,ESE,103,4.0,8.0,46,0.00,,,0.00,weatherlink.com 1.10,2013-11-03 17:21:00,
2013-11-03 11:36:00,65.7,42.0,30.18,SE,130,3.0,13.0,42,0.00,,,0.00,weatherlink.com 1.10,2013-11-03 17:36:00,
2013-11-03 11:51:00,65.9,42.0,30.18,NW,318,2.0,8.0,42,0.00,,,0.00,weatherlink.com 1.10,2013-11-03 17:51:00,
2013-11-03 12:06:00,66.2,42.0,30.17,SSE,155,2.0,8.0,42,0.00,,,0.00,weatherlink.com 1.10,2013-11-03 18:06:00,
2013-11-03 12:21:00,67.3,43.0,30.16,West,266,0.0,7.0,42,0.00,,,0.00,weatherlink.com 1.10,2013-11-03 18:21:00,
2013-11-03 12:36:00,67.1,40.0,30.15,NNW,339,2.0,8.0,37,0.00,,,0.00,weatherlink.com 1.10,2013-11-03 18:36:00,
2013-11-03 12:51:00,67.5,40.0,30.15,SE,127,1.0,6.0,37,0.00,,,0.00,weatherlink.com 1.10,2013-11-03 18:51:00,
2013-11-03 13:06:00,67.3,41.0,30.15,ENE,77,6.0,7.0,38,0.00,,,0.00,weatherlink.com 1.10,2013-11-03 19:06:00,
2013-11-03 13:21:00,67.1,42.0,30.14,SSE,160,0.0,7.0,40,0.00,,,0.00,weatherlink.com 1.10,2013-11-03 19:21:00,
2013-11-03 13:36:00,67.5,43.0,30.14,NE,54,5.0,7.0,41,0.00,,,0.00,weatherlink.com 1.10,2013-11-03 19:36:00,
2013-11-03 13:51:00,67.9,44.0,30.14,East,90,3.0,6.0,42,0.00,,,0.00,weatherlink.com 1.10,2013-11-03 19:51:00,
2013-11-03 14:06:00,67.9,43.0,30.13,ENE,59,2.0,4.0,40,0.00,,,0.00,weatherlink.com 1.10,2013-11-03 20:06:00,
2013-11-03 14:21:00,67.7,42.0,30.13,NW,311,1.0,4.0,40,0.00,,,0.00,weatherlink.com 1.10,2013-11-03 20:21:00,
2013-11-03 14:36:00,67.7,42.0,30.13,West,278,2.0,3.0,40,0.00,,,0.00,weatherlink.com 1.10,2013-11-03 20:36:00,
2013-11-03 14:51:00,67.3,41.0,30.13,East,93,1.0,6.0,39,0.00,,,0.00,weatherlink.com 1.10,2013-11-03 20:51:00,
2013-11-03 15:06:00,67.1,42.0,30.13,ESE,120,4.0,6.0,40,0.00,,,0.00,weatherlink.com 1.10,2013-11-03 21:06:00,
2013-11-03 15:21:00,66.5,41.0,30.14,WNW,301,2.0,6.0,40,0.00,,,0.00,weatherlink.com 1.10,2013-11-03 21:21:00,
2013-11-03 15:36:00,65.7,42.0,30.14,WNW,289,2.0,3.0,43,0.00,,,0.00,weatherlink.com 1.10,2013-11-03 21:36:00,
2013-11-03 15:51:00,64.2,42.0,30.15,SSW,198,0.0,2.0,45,0.00,,,0.00,weatherlink.com 1.10,2013-11-03 21:51:00,
2013-11-03 16:06:00,63.3,41.0,30.15,South,186,0.0,2.0,45,0.00,,,0.00,weatherlink.com 1.10,2013-11-03 22:06:00,
2013-11-03 16:21:00,62.3,43.0,30.15,East,101,0.0,1.0,49,0.00,,,0.00,weatherlink.com 1.10,2013-11-03 22:21:00,
2013-11-03 16:36:00,60.6,44.0,30.15,East,98,0.0,0.0,55,0.00,,,0.00,weatherlink.com 1.10,2013-11-03 22:36:00,
2013-11-03 16:51:00,58.2,44.0,30.15,East,98,0.0,0.0,59,0.00,,,0.00,weatherlink.com 1.10,2013-11-03 22:51:00,
2013-11-03 17:06:00,56.2,44.0,30.15,East,98,0.0,0.0,65,0.00,,,0.00,weatherlink.com 1.10,2013-11-03 23:06:00,
2013-11-03 17:21:00,54.4,44.0,30.15,East,98,0.0,0.0,68,0.00,,,0.00,weatherlink.com 1.10,2013-11-03 23:21:00,
2013-11-03 17:36:00,53.4,43.0,30.16,East,98,0.0,0.0,69,0.00,,,0.00,weatherlink.com 1.10,2013-11-03 23:36:00,
2013-11-03 17:51:00,53.2,44.0,30.16,East,98,0.0,0.0,70,0.00,,,0.00,weatherlink.com 1.10,2013-11-03 23:51:00,
2013-11-03 18:06:00,52.5,45.0,30.17,East,98,0.0,0.0,75,0.00,,,0.00,weatherlink.com 1.10,2013-11-04 00:06:00,
2013-11-03 18:21:00,51.4,44.0,30.17,East,97,0.0,0.0,76,0.00,,,0.00,weatherlink.com 1.10,2013-11-04 00:21:00,
2013-11-03 18:36:00,51.3,44.0,30.17,East,97,0.0,0.0,76,0.00,,,0.00,weatherlink.com 1.10,2013-11-04 00:36:00,
2013-11-03 18:51:00,51.7,44.0,30.18,East,98,0.0,0.0,75,0.00,,,0.00,weatherlink.com 1.10,2013-11-04 00:51:00,
2013-11-03 19:06:00,51.5,44.0,30.18,East,98,0.0,0.0,76,0.00,,,0.00,weatherlink.com 1.10,2013-11-04 01:06:00,
2013-11-03 19:21:00,51.0,44.0,30.18,East,97,0.0,0.0,76,0.00,,,0.00,weatherlink.com 1.10,2013-11-04 01:21:00,
2013-11-03 19:36:00,50.8,45.0,30.18,East,97,0.0,0.0,79,0.00,,,0.00,weatherlink.com 1.10,2013-11-04 01:36:00,
2013-11-03 19:51:00,50.2,44.0,30.18,East,97,0.0,0.0,78,0.00,,,0.00,weatherlink.com 1.10,2013-11-04 01:51:00,
2013-11-03 20:06:00,50.2,44.0,30.19,East,98,0.0,0.0,80,0.00,,,0.00,weatherlink.com 1.10,2013-11-04 02:06:00,
2013-11-03 20:21:00,50.0,44.0,30.19,East,98,0.0,0.0,81,0.00,,,0.00,weatherlink.com 1.10,2013-11-04 02:21:00,
2013-11-03 20:36:00,49.9,44.0,30.20,East,98,0.0,0.0,81,0.00,,,0.00,weatherlink.com 1.10,2013-11-04 02:36:00,
2013-11-03 20:51:00,49.9,44.0,30.21,East,98,0.0,0.0,81,0.00,,,0.00,weatherlink.com 1.10,2013-11-04 02:51:00,
2013-11-03 21:06:00,49.7,44.0,30.21,East,97,0.0,0.0,82,0.00,,,0.00,weatherlink.com 1.10,2013-11-04 03:06:00,
2013-11-03 21:21:00,49.6,44.0,30.22,East,97,0.0,0.0,82,0.00,,,0.00,weatherlink.com 1.10,2013-11-04 03:21:00,
2013-11-03 21:36:00,49.4,44.0,30.22,East,97,0.0,0.0,81,0.00,,,0.00,weatherlink.com 1.10,2013-11-04 03:36:00,
2013-11-03 21:51:00,49.1,43.0,30.23,East,98,0.0,0.0,80,0.00,,,0.00,weatherlink.com 1.10,2013-11-04 03:51:00,
2013-11-03 22:06:00,49.2,43.0,30.23,East,98,0.0,0.0,80,0.00,,,0.00,weatherlink.com 1.10,2013-11-04 04:06:00,
2013-11-03 22:21:00,49.0,43.0,30.23,East,98,0.0,0.0,81,0.00,,,0.00,weatherlink.com 1.10,2013-11-04 04:21:00,
2013-11-03 22:36:00,48.7,43.0,30.23,East,98,0.0,0.0,82,0.00,,,0.00,weatherlink.com 1.10,2013-11-04 04:36:00,
2013-11-03 22:51:00,48.3,43.0,30.23,East,97,0.0,0.0,81,0.00,,,0.00,weatherlink.com 1.10,2013-11-04 04:51:00,
2013-11-03 23:06:00,47.7,43.0,30.22,East,97,0.0,0.0,83,0.00,,,0.00,weatherlink.com 1.10,2013-11-04 05:06:00,
2013-11-03 23:21:00,47.4,43.0,30.22,East,98,0.0,0.0,84,0.00,,,0.00,weatherlink.com 1.10,2013-11-04 05:21:00,
2013-11-03 23:36:00,46.9,43.0,30.22,East,97,0.0,0.0,85,0.00,,,0.00,weatherlink.com 1.10,2013-11-04 05:36:00,
2013-11-03 23:51:00,46.2,42.0,30.21,East,98,0.0,0.0,86,0.00,,,0.00,weatherlink.com 1.10,2013-11-04 05:51:00,